Hlavní strana
METAR-TAF:

METAR-TAF

Letiště :

Newark-Heath Airport

Newark, Ohio, Spojené státy americké

zeměpisná šířka: 40-01-22N, zeměpisná délka: 082-27-45W, výška: 269 m

Aktuální stav počasí

Zpráva byla vytvořena před 51 minutami, v 02:54 UTC
Jihojihozápadní vítr 7 kt
Teplota -2°C
Vlhkost vzduchu 86%
Tlak 1020 hPa
Viditelnost: 4.8 km
Zataženo ve výšce 600 ft
kouřmo

METAR: KVTA 160254Z AUTO 21007KT 3SM BR OVC006 M02/M04 A3013 RMK AO2 SLP214 I1001 I3002 T10171039 56018

Čas: 22:45 (03:45 UTC)


TAF: chybějící

Stav a předpovědi počasí z více než 4 000 letišť (zprávy METAR a TAF).

Červené a žluté tečky na mapě představují dostupné meteorologické stanice.

Když kurzor umístíte na tečku, zobrazí se název stanice.

Pak kliknutím zobrazíte stav a předpověď počasí.

Chcete-li změnit mapu, kliknutím na zelené tlačítko se znaménkem +mapu přiblížíte, kliknutím na zelené tlačítko se znaménkem – mapu oddálíte a kliknutím na zelené šipky přejdete na sousední mapy.


METAR-TAF: